Location: Azat
(46.0765°N, 1.7600°E)
Time: 20:58:34
(UTC+00:00)

Cosmos 1980 Rocket - Pass Details

Date: 09 April 2020
Orbit: 829 x 850 km, 71.0° (Epoch: 25 May)

Event Time Altitude Azimuth Distance (km) Brightness Sun altitude
Rises 19:52:39 0° 342° (NNW) 3,387 6.1 -13.8°
Reaches altitude 10° 19:56:33 10° 8° (N) 2,453 4.9 -14.4°
Maximum altitude 19:59:14 13° 37° (NE) 2,216 4.3 -14.8°
Drops below altitude 10° 20:01:56 10° 66° (ENE) 2,455 4.3 -15.2°
Enters shadow 20:02:21 - 70° (ENE) 2,530 4.3 -15.3°
